When you browse on this site, cookies collect data to enhance your experience and personalize the content and advertising you see.
Visit our Privacy Policy to learn more. By continuing to use the site, you agree to this use of cookies and data.
  • In Austria
  • List of Countries
  • For 7 days
  • Water Temperature
  • Satellite Maps
  • Weather Map
  • News
  • Weather Widgets
  • user-avatar
    Login

    Hourly Weather Coram

    Today, 22 April, Monday

    Time Temperature Precipitation Wind Pressure Humidity
    00:00 +12°C° 0 mm 1 mps 761 mmHg 76%
    01:00 +12°C° 0 mm 1 mps 761 mmHg 76%
    02:00 +12°C° 0 mm 2 mps 761 mmHg 78%
    03:00 +10°C° 0 mm 2 mps 761 mmHg 79%
    04:00 +10°C° 0 mm 2 mps 760 mmHg 81%
    05:00 +12°C° 0 mm 2 mps 760 mmHg 81%
    06:00 +11°C° 0 mm 3 mps 760 mmHg 80%
    07:00 +12°C° 0 mm 3 mps 760 mmHg 80%
    08:00 +13°C° 0 mm 3 mps 760 mmHg 75%
    09:00 +14°C° 0 mm 3 mps 759 mmHg 70%
    10:00 +16°C° 0 mm 3 mps 759 mmHg 65%
    11:00 +16°C° 1.2 mm 2 mps 759 mmHg 69%
    12:00 +16°C° 1.2 mm 1 mps 758 mmHg 72%
    13:00 +14°C° 1.2 mm 0 mps 758 mmHg 76%
    14:00 +15°C° 2.3 mm 1 mps 758 mmHg 81%
    15:00 +14°C° 2.3 mm 1 mps 757 mmHg 85%
    16:00 +14°C° 2.3 mm 1 mps 757 mmHg 90%
    17:00 +14°C° 1.2 mm 2 mps 757 mmHg 89%
    18:00 +13°C° 1.2 mm 3 mps 757 mmHg 88%
    19:00 +13°C° 1.2 mm 4 mps 757 mmHg 87%
    20:00 +13°C° 0.3 mm 4 mps 758 mmHg 87%
    21:00 +13°C° 0.3 mm 5 mps 758 mmHg 87%
    22:00 +13°C° 0.3 mm 5 mps 758 mmHg 87%
    23:00 +13°C° 0.1 mm 5 mps 758 mmHg 87%

    Tomorrow, 23 April, Tuesday

    Time Temperature Precipitation Wind Pressure Humidity
    00:00 +13°C° 0.1 mm 4 mps 758 mmHg 87%
    01:00 +13°C° 0.1 mm 4 mps 758 mmHg 87%
    02:00 +13°C° 0 mm 4 mps 758 mmHg 87%
    03:00 +12°C° 0 mm 4 mps 758 mmHg 87%
    04:00 +12°C° 0 mm 4 mps 758 mmHg 87%
    05:00 +13°C° 0 mm 3 mps 758 mmHg 86%
    06:00 +13°C° 0 mm 3 mps 759 mmHg 84%
    07:00 +13°C° 0 mm 3 mps 759 mmHg 82%
    08:00 +15°C° 0 mm 2 mps 759 mmHg 77%
    09:00 +16°C° 0 mm 2 mps 759 mmHg 72%
    10:00 +18°C° 0 mm 1 mps 759 mmHg 67%
    11:00 +19°C° 0 mm 1 mps 759 mmHg 64%
    12:00 +20°C° 0 mm 1 mps 759 mmHg 61%
    13:00 +21°C° 0 mm 1 mps 758 mmHg 59%
    14:00 +20°C° 0 mm 2 mps 758 mmHg 59%
    15:00 +19°C° 0 mm 3 mps 757 mmHg 59%
    16:00 +19°C° 0 mm 4 mps 757 mmHg 60%
    17:00 +17°C° 0 mm 5 mps 757 mmHg 64%
    18:00 +16°C° 0 mm 5 mps 756 mmHg 69%
    19:00 +14°C° 0 mm 5 mps 756 mmHg 73%
    20:00 +14°C° 0 mm 5 mps 756 mmHg 75%
    21:00 +14°C° 0 mm 6 mps 756 mmHg 77%
    22:00 +13°C° 0 mm 6 mps 756 mmHg 79%
    23:00 +13°C° 0.6 mm 6 mps 755 mmHg 80%

    Day after tomorrow, 24 April, Wednesday

    Time Temperature Precipitation Wind Pressure Humidity
    00:00 +13°C° 0.6 mm 5 mps 754 mmHg 82%
    01:00 +13°C° 0.6 mm 5 mps 753 mmHg 83%
    02:00 +13°C° 0.9 mm 5 mps 753 mmHg 82%
    03:00 +13°C° 0.9 mm 5 mps 752 mmHg 82%
    04:00 +13°C° 0.9 mm 5 mps 751 mmHg 81%
    05:00 +14°C° 0.2 mm 5 mps 751 mmHg 81%
    06:00 +15°C° 0.2 mm 6 mps 751 mmHg 81%
    07:00 +16°C° 0.2 mm 6 mps 751 mmHg 81%
    08:00 +16°C° 0 mm 7 mps 752 mmHg 71%
    09:00 +15°C° 0 mm 7 mps 752 mmHg 61%
    10:00 +15°C° 0 mm 8 mps 752 mmHg 51%
    11:00 +15°C° 0 mm 7 mps 752 mmHg 49%
    12:00 +16°C° 0 mm 7 mps 752 mmHg 47%
    13:00 +16°C° 0 mm 7 mps 752 mmHg 46%
    14:00 +16°C° 0 mm 7 mps 752 mmHg 46%
    15:00 +16°C° 0 mm 7 mps 752 mmHg 46%
    16:00 +16°C° 0 mm 8 mps 752 mmHg 47%
    17:00 +15°C° 0 mm 7 mps 753 mmHg 49%
    18:00 +14°C° 0 mm 6 mps 753 mmHg 51%
    19:00 +13°C° 0 mm 6 mps 754 mmHg 53%
    20:00 +13°C° 0 mm 6 mps 754 mmHg 55%
    21:00 +11°C° 0 mm 6 mps 755 mmHg 57%
    22:00 +12°C° 0 mm 5 mps 755 mmHg 59%
    23:00 +10°C° 0 mm 5 mps 755 mmHg 60%

    25 April, Thursday

    Time Temperature Precipitation Wind Pressure Humidity
    00:00 +10°C° 0 mm 5 mps 755 mmHg 60%
    01:00 +9°C° 0 mm 5 mps 755 mmHg 61%
    02:00 +9°C° 0 mm 5 mps 756 mmHg 62%
    03:00 +8°C° 0 mm 4 mps 756 mmHg 62%
    04:00 +8°C° 0 mm 4 mps 756 mmHg 63%
    05:00 +8°C° 0 mm 4 mps 756 mmHg 62%
    06:00 +8°C° 0 mm 4 mps 757 mmHg 61%
    07:00 +10°C° 0 mm 3 mps 757 mmHg 60%
    08:00 +11°C° 0 mm 3 mps 757 mmHg 56%
    09:00 +12°C° 0 mm 3 mps 757 mmHg 52%
    10:00 +13°C° 0 mm 3 mps 757 mmHg 48%
    11:00 +16°C° 0 mm 3 mps 757 mmHg 45%
    12:00 +17°C° 0 mm 3 mps 757 mmHg 42%
    13:00 +18°C° 0 mm 3 mps 756 mmHg 39%
    14:00 +18°C° 0 mm 4 mps 756 mmHg 40%
    15:00 +18°C° 0 mm 4 mps 755 mmHg 40%
    16:00 +18°C° 0 mm 4 mps 755 mmHg 41%
    17:00 +17°C° 0 mm 4 mps 755 mmHg 46%
    18:00 +15°C° 0 mm 5 mps 755 mmHg 51%
    19:00 +14°C° 0 mm 5 mps 755 mmHg 56%
    20:00 +14°C° 0 mm 5 mps 755 mmHg 57%
    21:00 +14°C° 0 mm 4 mps 755 mmHg 57%
    22:00 +13°C° 0 mm 4 mps 755 mmHg 58%
    23:00 +13°C° 0 mm 4 mps 755 mmHg 57%

    26 April, Friday

    Time Temperature Precipitation Wind Pressure Humidity
    00:00 +13°C° 0 mm 4 mps 755 mmHg 55%
    01:00 +13°C° 0 mm 3 mps 754 mmHg 54%
    02:00 +13°C° 0 mm 3 mps 754 mmHg 54%
    03:00 +13°C° 0 mm 3 mps 754 mmHg 54%
    04:00 +13°C° 0 mm 3 mps 753 mmHg 53%
    05:00 +13°C° 0 mm 3 mps 753 mmHg 53%
    06:00 +14°C° 0 mm 3 mps 754 mmHg 52%
    07:00 +14°C° 0 mm 3 mps 754 mmHg 51%
    08:00 +16°C° 0 mm 3 mps 754 mmHg 54%
    09:00 +16°C° 0 mm 2 mps 754 mmHg 56%
    10:00 +17°C° 0 mm 2 mps 753 mmHg 58%
    11:00 +16°C° 0.1 mm 2 mps 753 mmHg 62%
    12:00 +16°C° 0.1 mm 1 mps 753 mmHg 66%
    13:00 +16°C° 0.1 mm 1 mps 753 mmHg 71%
    14:00 +18°C° 0 mm 1 mps 753 mmHg 68%
    15:00 +17°C° 0 mm 2 mps 753 mmHg 65%
    16:00 +18°C° 0 mm 2 mps 753 mmHg 62%
    17:00 +18°C° 0.1 mm 2 mps 753 mmHg 60%
    18:00 +17°C° 0.1 mm 3 mps 754 mmHg 58%
    19:00 +17°C° 0.1 mm 3 mps 754 mmHg 56%
    20:00 +15°C° 0 mm 4 mps 755 mmHg 58%
    21:00 +15°C° 0 mm 4 mps 755 mmHg 60%
    22:00 +14°C° 0 mm 4 mps 756 mmHg 61%
    23:00 +13°C° 0 mm 4 mps 756 mmHg 62%

    27 April, Saturday

    Time Temperature Precipitation Wind Pressure Humidity
    00:00 +13°C° 0 mm 3 mps 756 mmHg 63%
    01:00 +12°C° 0 mm 3 mps 756 mmHg 63%
    02:00 +12°C° 0 mm 3 mps 756 mmHg 62%
    03:00 +12°C° 0 mm 3 mps 756 mmHg 61%
    04:00 +12°C° 0 mm 4 mps 757 mmHg 61%
    05:00 +12°C° 0 mm 4 mps 757 mmHg 55%
    06:00 +12°C° 0 mm 5 mps 757 mmHg 50%
    07:00 +11°C° 0 mm 6 mps 757 mmHg 45%
    08:00 +13°C° 0 mm 6 mps 757 mmHg 42%
    09:00 +14°C° 0 mm 7 mps 757 mmHg 38%
    10:00 +15°C° 0 mm 7 mps 757 mmHg 35%
    11:00 +16°C° 0 mm 7 mps 757 mmHg 32%
    12:00 +16°C° 0 mm 7 mps 757 mmHg 29%
    13:00 +17°C° 0 mm 6 mps 756 mmHg 26%
    14:00 +17°C° 0 mm 6 mps 756 mmHg 27%
    15:00 +17°C° 0 mm 6 mps 756 mmHg 28%
    16:00 +17°C° 0 mm 5 mps 756 mmHg 29%
    17:00 +16°C° 0 mm 5 mps 757 mmHg 32%
    18:00 +15°C° 0 mm 4 mps 757 mmHg 34%
    19:00 +15°C° 0 mm 4 mps 758 mmHg 37%
    20:00 +14°C° 0 mm 3 mps 758 mmHg 39%
    21:00 +13°C° 0 mm 3 mps 759 mmHg 42%
    22:00 +12°C° 0 mm 3 mps 759 mmHg 44%
    23:00 +13°C° 0 mm 2 mps 759 mmHg 44%
    Show more